Regional Weather Roundup
Issued by NWS

Current Version | Previous Version | Text Only | Print | Product List | Glossary On
Versions: 1 2 3 4 5 6 7 8 9 10 11 12 13 14 15 16 17 18 19 20 21 22 23 24 25 26 27 28 29 30 31 32 33 34 35 36 37 38 39 40 41 42 43 44 45 46 47 48 49 50
000
ASUS44 KFWD 061415
RWRTX
NORTH TEXAS HOURLY WEATHER ROUNDUP
NATIONAL WEATHER SERVICE FORT WORTH TX
900 AM CDT WED MAY 06 2015

NOTE: "FAIR" INDICATES FEW OR NO CLOUDS BELOW 12,000 FEET WITH NO
SIGNIFICANT WEATHER AND/OR OBSTRUCTIONS TO VISIBILITY.

TXZ118-119-061500-
DALLAS/FORT WORTH METROPLEX

CITY           SKY/WX    TMP DP  RH WIND       PRES   REMARKS
DFW AIRPORT    CLOUDY    70  67  90 S16       29.95R
DALLAS LOVE    CLOUDY    70  66  87 SE20      29.97R
FTW MEACHAM    CLOUDY    71  67  87 S16       29.95R
DAL-EXECUTIVE  CLOUDY    70  66  87 S13G20    29.96S
FTW-ALLIANCE   CLOUDY    69  67  93 S13G18    29.95R
FTW-NAS-JRB    CLOUDY    72  67  84 S15G22    29.96R
FTW-SPINKS     CLOUDY    72  66  83 SE14G28   29.97R
ARLINGTON      CLOUDY    72  65  78 SE16      29.96R
GRAND PRAIRIE  CLOUDY    70  68  94 SE12      29.98R
ADDISON        CLOUDY    70  66  88 SE13G23   29.98F
MESQUITE       CLOUDY    70  66  88 SE14G20   29.98R
LANCASTER      CLOUDY    68  65  89 SE10      29.99R
$$

TXZ091>094-102>105-117-120-121-131>134-061500-
NORTH CENTRAL TEXAS

CITY           SKY/WX    TMP DP  RH WIND       PRES   REMARKS
SHRMAN/DENISON CLOUDY    70  68  93 SE14      29.99S
GAINESVILLE    CLOUDY    68  65  92 SE12      29.98R
BOWIE          CLOUDY    68  65  90 SE14G21   29.94S
BRIDGEPORT     CLOUDY    70  67  91 S13       29.96R
DECATUR        CLOUDY    68  66  93 S10       29.96R
DENTON         CLOUDY    70  66  87 S13       29.95R
MCKINNEY       CLOUDY    70  67  90 S16       29.97R
GREENVILLE     MOSUNNY   70  64  83 SE10      29.99R
ROCKWALL       CLOUDY    69  67  92 S12G20    29.97S
TERRELL        CLOUDY    73  67  81 S14       29.99R
WAXAHACHIE     CLOUDY    70  69  98 SE13      29.98S
CLEBURNE       PTSUNNY   70  70 100 S12G18    29.98R
GRANBURY         N/A     72  66  83 SE12G18   29.97R
$$

TXZ083>090-098>101-113>116-127>130-139>142-154-155-061500-
WESTERN NORTH TEXAS

CITY           SKY/WX    TMP DP  RH WIND       PRES   REMARKS
WICHITA FALLS  PTSUNNY   70  66  87 S18G29    29.89S
WF-KICKAPOO    CLOUDY    72  67  84 S20G25    29.91S
VERNON         CLOUDY    70  64  82 S14       29.88S
ABILENE        PTSUNNY   73  66  78 S13       29.92S
ABILENE-DYESS  CLOUDY    73  66  78 S20G25    29.90S
BRECKENRIDGE   CLOUDY    73  66  79 S14G20    29.93S
GRAHAM         CLOUDY    70  67  90 SE8G16    29.92S
MINERAL WELLS  CLOUDY    70  66  87 S16       29.93S
STEPHENVILLE   CLOUDY    68  65  90 S10       29.98S
COMANCHE       CLOUDY    71  71  99 S8        29.95S
BROWNWOOD      PTSUNNY   73  68  83 S12       29.95R
COLEMAN        CLOUDY    72  67  85 S13G20    29.94S
BRADY          MOSUNNY   72  70  94 SE10      29.94S
$$

TXZ143>147-156>162-174-175-061500-
CENTRAL TEXAS

CITY           SKY/WX    TMP DP  RH WIND       PRES   REMARKS
WACO           CLOUDY    71  66  84 S10       29.96S
WACO-TSTC      PTSUNNY   72  68  88 SE8       29.97S
WACO-MCGREGOR  PTSUNNY   72  63  73 S9        29.97S
HILLSBORO      CLOUDY    70  66  88 SE13      29.97S
CORSICANA      CLOUDY    71  67  87 SE12      29.99R
MEXIA          CLOUDY   N/A N/A N/A SE12      29.97R
HEARNE         PTSUNNY   68  67  95 SE8       29.99F
CAMERON        CLOUDY    67  65  93 SE7       29.98S
TEMPLE         PTSUNNY   70  63  78 SE14      29.96S
KILLEEN        CLOUDY    68  68 100 SE9       29.96R
KILLEEN-SKYLRK PTSUNNY   70  64  83 SE10      29.96R
FORT HOOD      CLOUDY    70  68  94 SE12G18   29.96S
GATESVILLE     CLOUDY    70  68  94 S7        29.98F
HAMILTON       CLOUDY    69  69 100 S15G21    29.98R
LAMPASAS       CLOUDY    73  70  89 SE8       29.96R
$$

TXZ095>097-106>112-122>126-135>138-148>153-164>167-061500-
EAST TEXAS

CITY           SKY/WX    TMP DP  RH WIND       PRES   REMARKS
PARIS          PTSUNNY  N/A N/A N/A MISG        N/A
SULPHUR SPRNGS PTSUNNY   71  66  84 SE10G16   30.02S
MOUNT PLEASANT CLOUDY   N/A N/A N/A SE9       30.03S
GILMER         CLOUDY    68  64  86 SE14      30.02F
MINEOLA        CLOUDY    70  70 100 SE7       30.01R
TYLER          PTSUNNY   72  66  81 SE16G23   30.00S
LONGVIEW       PTSUNNY   70  64  81 SE10      30.02F
MARSHALL       MOSUNNY   73  66  78 S7        30.06F
ATHENS         CLOUDY    68  66  94 S10       29.99R
PALESTINE      CLOUDY    70  68  94 SE10      30.00F
JACKSONVILLE   CLOUDY    70  66  86 SE7       30.05S
HENDERSON      PTSUNNY   69  64  84 SE10      30.04S
NACOGDOCHES    CLOUDY    68  63  83 SE7       30.02F
LUFKIN         CLOUDY    70  65  84 SE9       30.03S
$$

SUPPLEMENTAL OBSERVATIONS (CENTRAL)

CITY           SKY/WX    TMP DP  RH WIND       PRES   REMARKS
LAKE TEXOMA      N/A     70  66  88 SE7         N/A
CADDO GRASSLND   N/A     72  66  83 S9          N/A
PAT MAYSE LAKE   N/A     68  66  94 E8          N/A
GREENVILLE       N/A     72  66  83 S7G15       N/A
CEDAR HILL       N/A     72  68  88 SE10G20     N/A
ATHENS           N/A     72  66  83 S16G22      N/A
LAKE LIMESTONE   N/A     70  66  88 SE8G17      N/A
MCGREGOR         N/A     73  66  78 S13         N/A
TEMPLE           N/A     70  66  88 SE12        N/A
$$

SUPPLEMENTAL OBSERVATIONS (WEST)

CITY           SKY/WX    TMP DP  RH WIND       PRES   REMARKS
MILLERS CREEK    N/A     73  68  83 S20G30      N/A
POSSUM KINGDOM   N/A     72  68  88 S10         N/A
LBJ GRASSLAND    N/A     70  66  88 S10         N/A
GRANBURY         N/A     70  64  83 S14         N/A
COMANCHE         N/A     72  66  83 S12         N/A
HAMBY            N/A     72  64  78 S14         N/A
IVIE RESERVOIR   N/A     72  64  78 SE13        N/A
COLORADO BEND    N/A     72  66  83 SW12        N/A
$$

SUPPLEMENTAL OBSERVATIONS (EAST)

CITY           SKY/WX    TMP DP  RH WIND       PRES   REMARKS
CLARKSVILLE      N/A     70  68  94 SE9         N/A
TEXARKANA        N/A     73  63  68 S6          N/A
LINDEN           N/A     73  64  73 SE5         N/A
CADDO LAKE       N/A     73  64  73 SE6         N/A
GILMER           N/A     70  64  83 SE9         N/A
HENDERSON        N/A     70  63  78 S8          N/A
LUFKIN           N/A     70  64  83 MISG        N/A
N SABINE NF      N/A     68  64  88 MISG        N/A
S SABINE NF      N/A     72  66  83 CALM        N/A
$$

SUPPLEMENTAL OBSERVATIONS ARE A COLLECTION OF AUTOMATED INSTRUMENTS
THAT ARE MAINTAINED BY A VARIETY OF FEDERAL AND STATE AGENCIES.
CERTAIN ELEMENTS...SUCH AS HUMIDITY VALUES AND SUSTAINED WIND
SPEEDS...MAY BE APPROXIMATED.



USA.gov is the U.S. government's official web portal to all federal, state and local government web resources and services.